Time,TemperatureF,DewpointF,PressureIn,WindDirection,WindDirectionDegrees,WindSpeedMPH,WindSpeedGustMPH,Humidity,HourlyPrecipIn,Conditions,Clouds,dailyrainin,SoftwareType,DateUTC
2013-12-17 00:00:00,23.2,19.6,29.92,West,277,1.0,6.0,86,0.00,,SKC,0.00,VWS V14.01,2013-12-17 05:00:00,
2013-12-17 00:01:00,23.2,19.6,29.92,West,277,0.0,4.0,86,0.00,,SKC,0.00,VWS V14.01,2013-12-17 05:01:00,
2013-12-17 00:02:00,23.2,19.6,29.92,West,277,1.0,4.0,86,0.00,,SKC,0.00,VWS V14.01,2013-12-17 05:02:00,
2013-12-17 00:08:00,23.3,19.7,29.91,West,277,0.0,4.0,86,0.00,,SKC,0.00,VWS V14.01,2013-12-17 05:08:00,
2013-12-17 00:13:00,23.5,19.9,29.91,West,277,1.0,4.0,86,0.00,,SKC,0.00,VWS V14.01,2013-12-17 05:13:00,
2013-12-17 00:18:00,23.5,19.9,29.91,West,277,1.0,5.0,86,0.00,,SKC,0.00,VWS V14.01,2013-12-17 05:18:00,
2013-12-17 00:23:00,23.6,20.0,29.90,West,277,2.0,5.0,86,0.00,,SKC,0.00,VWS V14.01,2013-12-17 05:23:00,
2013-12-17 00:28:00,23.8,20.2,29.90,West,277,2.0,5.0,86,0.00,,SKC,0.00,VWS V14.01,2013-12-17 05:28:00,
2013-12-17 00:33:00,23.8,20.5,29.90,West,277,4.0,5.0,87,0.00,,SKC,0.00,VWS V14.01,2013-12-17 05:33:00,
2013-12-17 00:38:00,23.9,20.6,29.89,West,277,2.0,5.0,87,0.00,,SKC,0.00,VWS V14.01,2013-12-17 05:38:00,
2013-12-17 00:43:00,24.1,20.8,29.89,West,277,2.0,5.0,87,0.00,,SKC,0.00,VWS V14.01,2013-12-17 05:43:00,
2013-12-17 00:49:00,24.1,20.8,29.89,West,277,2.0,5.0,87,0.00,,SKC,0.00,VWS V14.01,2013-12-17 05:49:00,
2013-12-17 00:54:00,24.1,20.8,29.89,West,277,4.0,4.0,87,0.00,,SKC,0.00,VWS V14.01,2013-12-17 05:54:00,
2013-12-17 00:59:00,24.2,20.9,29.89,West,277,1.0,4.0,87,0.00,,SKC,0.00,VWS V14.01,2013-12-17 05:59:00,
2013-12-17 01:00:00,24.1,20.8,29.89,West,277,2.0,5.0,87,0.00,,SKC,0.00,VWS V14.01,2013-12-17 06:00:00,
2013-12-17 01:04:00,24.2,20.9,29.89,West,277,4.0,5.0,87,0.00,,SKC,0.00,VWS V14.01,2013-12-17 06:04:00,
2013-12-17 01:09:00,24.4,21.1,29.88,West,277,4.0,5.0,87,0.00,,SKC,0.00,VWS V14.01,2013-12-17 06:09:00,
2013-12-17 01:14:00,24.4,21.1,29.88,West,277,2.0,5.0,87,0.00,,SKC,0.00,VWS V14.01,2013-12-17 06:14:00,
2013-12-17 01:19:00,24.5,21.2,29.88,West,277,2.0,5.0,87,0.00,,SKC,0.00,VWS V14.01,2013-12-17 06:19:00,
2013-12-17 01:24:00,24.5,21.2,29.86,West,277,2.0,5.0,87,0.00,,SKC,0.00,VWS V14.01,2013-12-17 06:24:00,
2013-12-17 01:29:00,24.7,21.4,29.86,West,277,2.0,5.0,87,0.00,,SKC,0.00,VWS V14.01,2013-12-17 06:29:00,
2013-12-17 01:34:00,24.8,21.5,29.86,West,277,3.0,5.0,87,0.00,,SKC,0.00,VWS V14.01,2013-12-17 06:34:00,
2013-12-17 01:39:00,24.8,21.8,29.86,West,277,4.0,5.0,88,0.00,,SKC,0.00,VWS V14.01,2013-12-17 06:39:00,
2013-12-17 01:44:00,25.0,22.0,29.86,West,277,2.0,5.0,88,0.00,,SKC,0.00,VWS V14.01,2013-12-17 06:44:00,
2013-12-17 01:50:00,25.1,22.0,29.86,West,278,4.0,5.0,88,0.00,,SKC,0.00,VWS V14.01,2013-12-17 06:50:00,
2013-12-17 01:55:00,25.3,22.2,29.86,WNW,294,2.0,4.0,88,0.00,,SKC,0.00,VWS V14.01,2013-12-17 06:55:00,
2013-12-17 02:00:00,25.3,22.2,29.86,WNW,294,2.0,5.0,88,0.00,,SKC,0.00,VWS V14.01,2013-12-17 07:00:00,
2013-12-17 02:05:00,25.4,22.4,29.86,WNW,294,2.0,5.0,88,0.00,,SKC,0.00,VWS V14.01,2013-12-17 07:05:00,
2013-12-17 02:10:00,25.4,22.4,29.86,WNW,294,3.0,5.0,88,0.00,,SKC,0.00,VWS V14.01,2013-12-17 07:10:00,
2013-12-17 02:15:00,25.4,22.4,29.86,WNW,294,2.0,5.0,88,0.00,,SKC,0.00,VWS V14.01,2013-12-17 07:15:00,
2013-12-17 02:20:00,25.6,22.8,29.86,WNW,294,1.0,5.0,89,0.00,,SKC,0.00,VWS V14.01,2013-12-17 07:20:00,
2013-12-17 02:25:00,25.6,22.8,29.85,WNW,294,1.0,5.0,89,0.00,,SKC,0.00,VWS V14.01,2013-12-17 07:25:00,
2013-12-17 02:30:00,25.6,22.8,29.85,WNW,294,2.0,5.0,89,0.00,,SKC,0.00,VWS V14.01,2013-12-17 07:30:00,
2013-12-17 02:36:00,25.7,22.9,29.85,WNW,294,4.0,5.0,89,0.00,,SKC,0.00,VWS V14.01,2013-12-17 07:36:00,
2013-12-17 02:41:00,25.8,23.0,29.84,WNW,294,2.0,5.0,89,0.00,,SKC,0.00,VWS V14.01,2013-12-17 07:41:00,
2013-12-17 02:46:00,25.8,23.0,29.84,WNW,294,3.0,5.0,89,0.00,,SKC,0.00,VWS V14.01,2013-12-17 07:46:00,
2013-12-17 02:51:00,26.0,23.2,29.84,WNW,294,3.0,5.0,89,0.00,,SKC,0.00,VWS V14.01,2013-12-17 07:51:00,
2013-12-17 02:56:00,26.1,23.3,29.84,WNW,294,2.0,4.0,89,0.00,,SKC,0.00,VWS V14.01,2013-12-17 07:56:00,
2013-12-17 03:00:00,26.1,23.3,29.84,WNW,294,1.0,5.0,89,0.00,,SKC,0.00,VWS V14.01,2013-12-17 08:00:00,
2013-12-17 03:01:00,26.3,23.5,29.84,WNW,294,0.0,4.0,89,0.00,,SKC,0.00,VWS V14.01,2013-12-17 08:01:00,
2013-12-17 03:06:00,26.4,23.6,29.84,WNW,294,0.0,4.0,89,0.00,,SKC,0.00,VWS V14.01,2013-12-17 08:06:00,
2013-12-17 03:11:00,26.4,23.6,29.84,WNW,294,0.0,4.0,89,0.00,,SKC,0.00,VWS V14.01,2013-12-17 08:11:00,
2013-12-17 03:16:00,26.4,23.6,29.84,WNW,294,1.0,5.0,89,0.00,,SKC,0.00,VWS V14.01,2013-12-17 08:16:00,
2013-12-17 03:22:00,26.6,23.8,29.84,WNW,294,0.0,5.0,89,0.00,,SKC,0.00,VWS V14.01,2013-12-17 08:22:00,
2013-12-17 03:27:00,26.6,23.8,29.84,WNW,294,0.0,5.0,89,0.00,,SKC,0.00,VWS V14.01,2013-12-17 08:27:00,
2013-12-17 03:32:00,26.6,23.8,29.84,WNW,294,0.0,5.0,89,0.00,,SKC,0.00,VWS V14.01,2013-12-17 08:32:00,
2013-12-17 03:37:00,26.6,23.8,29.83,WNW,294,0.0,5.0,89,0.00,,SKC,0.00,VWS V14.01,2013-12-17 08:37:00,
2013-12-17 03:42:00,26.6,24.1,29.83,WNW,294,0.0,5.0,90,0.00,,SKC,0.00,VWS V14.01,2013-12-17 08:42:00,
2013-12-17 03:47:00,26.6,24.1,29.83,WNW,294,0.0,5.0,90,0.00,,SKC,0.00,VWS V14.01,2013-12-17 08:47:00,
2013-12-17 03:52:00,26.7,24.2,29.83,WNW,294,0.0,5.0,90,0.00,,SKC,0.00,VWS V14.01,2013-12-17 08:52:00,
2013-12-17 03:57:00,26.7,24.2,29.83,WNW,294,0.0,0.0,90,0.00,,SKC,0.00,VWS V14.01,2013-12-17 08:57:00,
2013-12-17 04:00:00,26.7,24.2,29.83,WNW,294,0.0,5.0,90,0.00,,SKC,0.00,VWS V14.01,2013-12-17 09:00:00,
2013-12-17 04:02:00,26.9,24.4,29.83,WNW,294,0.0,2.0,90,0.00,,SKC,0.00,VWS V14.01,2013-12-17 09:02:00,
2013-12-17 04:07:00,26.9,24.4,29.84,WNW,294,0.0,2.0,90,0.00,,SKC,0.00,VWS V14.01,2013-12-17 09:07:00,
2013-12-17 04:13:00,26.9,24.4,29.84,WNW,294,0.0,2.0,90,0.00,,SKC,0.00,VWS V14.01,2013-12-17 09:13:00,
2013-12-17 04:18:00,27.0,24.5,29.84,WNW,294,1.0,2.0,90,0.00,,SKC,0.00,VWS V14.01,2013-12-17 09:18:00,
2013-12-17 04:23:00,27.2,24.7,29.84,WNW,294,0.0,2.0,90,0.00,,SKC,0.00,VWS V14.01,2013-12-17 09:23:00,
2013-12-17 04:28:00,27.2,24.7,29.84,WNW,294,0.0,2.0,90,0.00,,SKC,0.00,VWS V14.01,2013-12-17 09:28:00,
2013-12-17 04:33:00,27.3,24.8,29.84,WNW,294,1.0,2.0,90,0.00,,SKC,0.00,VWS V14.01,2013-12-17 09:33:00,
2013-12-17 04:38:00,27.6,25.1,29.83,NE,44,1.0,3.0,90,0.00,,SKC,0.00,VWS V14.01,2013-12-17 09:38:00,
2013-12-17 04:43:00,27.8,25.2,29.83,NE,44,0.0,3.0,90,0.00,,SKC,0.00,VWS V14.01,2013-12-17 09:43:00,
2013-12-17 04:48:00,28.1,25.8,29.83,NE,49,1.0,4.0,91,0.00,,SKC,0.00,VWS V14.01,2013-12-17 09:48:00,
2013-12-17 04:53:00,28.2,25.9,29.83,NE,53,1.0,1.0,91,0.00,,SKC,0.00,VWS V14.01,2013-12-17 09:53:00,
2013-12-17 04:59:00,28.5,26.2,29.83,East,98,1.0,5.0,91,0.00,,SKC,0.00,VWS V14.01,2013-12-17 09:59:00,
2013-12-17 05:00:00,28.2,25.9,29.83,NE,53,0.0,4.0,91,0.00,,SKC,0.00,VWS V14.01,2013-12-17 10:00:00,
2013-12-17 05:04:00,28.8,26.5,29.83,NE,47,4.0,5.0,91,0.00,,SKC,0.00,VWS V14.01,2013-12-17 10:04:00,
2013-12-17 05:09:00,28.8,26.5,29.83,NE,53,0.0,5.0,91,0.00,,SKC,0.00,VWS V14.01,2013-12-17 10:09:00,
2013-12-17 05:14:00,29.0,26.7,29.83,NE,53,0.0,5.0,91,0.00,,SKC,0.00,VWS V14.01,2013-12-17 10:14:00,
2013-12-17 05:19:00,29.0,26.7,29.83,ENE,62,0.0,5.0,91,0.00,,SKC,0.00,VWS V14.01,2013-12-17 10:19:00,
2013-12-17 05:24:00,29.0,26.7,29.83,ENE,68,0.0,5.0,91,0.00,,SKC,0.00,VWS V14.01,2013-12-17 10:24:00,
2013-12-17 05:29:00,29.0,26.7,29.83,ENE,57,4.0,8.0,91,0.00,,SKC,0.00,VWS V14.01,2013-12-17 10:29:00,
2013-12-17 05:34:00,29.1,26.8,29.83,ENE,67,0.0,8.0,91,0.00,,SKC,0.00,VWS V14.01,2013-12-17 10:34:00,
2013-12-17 05:39:00,29.1,26.8,29.83,ESE,102,5.0,8.0,91,0.00,,SKC,0.00,VWS V14.01,2013-12-17 10:39:00,
2013-12-17 05:44:00,29.0,26.7,29.83,East,98,2.0,8.0,91,0.00,,SKC,0.00,VWS V14.01,2013-12-17 10:44:00,
2013-12-17 05:49:00,29.0,26.7,29.83,East,100,1.0,8.0,91,0.00,,SKC,0.00,VWS V14.01,2013-12-17 10:49:00,
2013-12-17 05:54:00,29.0,26.7,29.83,East,80,0.0,2.0,91,0.00,,SKC,0.00,VWS V14.01,2013-12-17 10:54:00,
2013-12-17 06:00:00,29.0,26.7,29.83,SE,128,5.0,5.0,91,0.00,,SKC,0.00,VWS V14.01,2013-12-17 11:00:00,
2013-12-17 06:05:00,28.8,26.5,29.83,East,91,1.0,10.0,91,0.00,,SKC,0.00,VWS V14.01,2013-12-17 11:05:00,
2013-12-17 06:10:00,28.8,26.5,29.84,ESE,102,4.0,10.0,91,0.00,,SKC,0.00,VWS V14.01,2013-12-17 11:10:00,
2013-12-17 06:16:00,28.7,26.4,29.84,ENE,71,4.0,10.0,91,0.00,,SKC,0.00,VWS V14.01,2013-12-17 11:16:00,
2013-12-17 06:21:00,28.7,26.4,29.84,NE,49,6.0,10.0,91,0.00,,SKC,0.00,VWS V14.01,2013-12-17 11:21:00,
2013-12-17 06:26:00,28.7,26.4,29.84,ENE,59,2.0,10.0,91,0.00,,SKC,0.00,VWS V14.01,2013-12-17 11:26:00,
2013-12-17 06:31:00,28.5,26.2,29.84,ENE,75,2.0,10.0,91,0.00,,SKC,0.00,VWS V14.01,2013-12-17 11:31:00,
2013-12-17 06:36:00,28.5,26.2,29.86,ESE,117,1.0,10.0,91,0.00,,SKC,0.00,VWS V14.01,2013-12-17 11:36:00,
2013-12-17 06:41:00,28.4,26.1,29.86,ENE,70,2.0,10.0,91,0.00,,SKC,0.00,VWS V14.01,2013-12-17 11:41:00,
2013-12-17 06:46:00,28.4,25.9,29.86,ESE,103,0.0,10.0,90,0.00,,SKC,0.00,VWS V14.01,2013-12-17 11:46:00,
2013-12-17 06:52:00,28.4,25.9,29.84,SSW,192,0.0,10.0,90,0.00,,SKC,0.00,VWS V14.01,2013-12-17 11:52:00,
2013-12-17 06:57:00,28.2,25.6,29.84,NNE,22,1.0,6.0,90,0.00,,SKC,0.00,VWS V14.01,2013-12-17 11:57:00,
2013-12-17 07:00:00,28.4,25.9,29.84,NNE,24,3.0,10.0,90,0.00,,SKC,0.00,VWS V14.01,2013-12-17 12:00:00,
2013-12-17 07:02:00,28.2,25.6,29.84,ENE,66,4.0,6.0,90,0.00,,SKC,0.00,VWS V14.01,2013-12-17 12:02:00,
2013-12-17 07:07:00,28.1,25.5,29.84,ENE,60,0.0,9.0,90,0.00,,SKC,0.00,VWS V14.01,2013-12-17 12:07:00,
2013-12-17 07:12:00,28.1,25.5,29.84,ESE,109,2.0,9.0,90,0.00,,SKC,0.00,VWS V14.01,2013-12-17 12:12:00,
2013-12-17 07:17:00,27.9,25.1,29.84,ESE,117,2.0,9.0,89,0.00,,SKC,0.00,VWS V14.01,2013-12-17 12:17:00,
2013-12-17 07:22:00,27.9,25.1,29.84,East,83,0.0,9.0,89,0.00,,SKC,0.00,VWS V14.01,2013-12-17 12:22:00,
2013-12-17 07:27:00,27.8,25.0,29.84,East,95,5.0,9.0,89,0.00,,SKC,0.00,VWS V14.01,2013-12-17 12:27:00,
2013-12-17 07:32:00,27.8,25.0,29.84,ESE,114,8.0,9.0,89,0.00,,SKC,0.00,VWS V14.01,2013-12-17 12:32:00,
2013-12-17 07:37:00,27.6,24.5,29.86,ENE,67,1.0,9.0,88,0.00,,SKC,0.00,VWS V14.01,2013-12-17 12:37:00,
2013-12-17 07:42:00,27.6,24.5,29.86,ESE,117,1.0,9.0,88,0.00,,SKC,0.00,VWS V14.01,2013-12-17 12:42:00,
2013-12-17 07:48:00,27.5,24.1,29.86,East,100,1.0,9.0,87,0.00,,SKC,0.00,VWS V14.01,2013-12-17 12:48:00,
2013-12-17 07:53:00,27.5,24.1,29.89,SSE,157,3.0,6.0,87,0.00,,SKC,0.00,VWS V14.01,2013-12-17 12:53:00,
2013-12-17 07:58:00,27.3,23.7,29.89,East,101,7.0,10.0,86,0.00,,SKC,0.00,VWS V14.01,2013-12-17 12:58:00,
2013-12-17 08:00:00,27.5,24.1,29.89,ESE,116,3.0,10.0,87,0.00,,SKC,0.00,VWS V14.01,2013-12-17 13:00:00,
2013-12-17 08:03:00,27.2,23.6,29.89,ESE,118,7.0,10.0,86,0.00,,SKC,0.00,VWS V14.01,2013-12-17 13:03:00,
2013-12-17 08:08:00,27.0,23.4,29.89,ESE,115,6.0,12.0,86,0.00,,SKC,0.00,VWS V14.01,2013-12-17 13:08:00,
2013-12-17 08:13:00,26.9,23.0,29.89,ESE,111,6.0,12.0,85,0.00,,SKC,0.00,VWS V14.01,2013-12-17 13:13:00,
2013-12-17 08:18:00,26.7,22.8,29.89,ENE,76,3.0,12.0,85,0.00,,SKC,0.00,VWS V14.01,2013-12-17 13:18:00,
2013-12-17 08:23:00,26.7,22.5,29.91,East,98,2.0,12.0,84,0.00,,SKC,0.00,VWS V14.01,2013-12-17 13:23:00,
2013-12-17 08:28:00,26.6,22.4,29.91,ESE,114,4.0,12.0,84,0.00,,SKC,0.00,VWS V14.01,2013-12-17 13:28:00,
2013-12-17 08:33:00,26.6,22.4,29.91,ESE,115,5.0,12.0,84,0.00,,SKC,0.00,VWS V14.01,2013-12-17 13:33:00,
2013-12-17 08:38:00,26.3,22.1,29.91,ESE,103,3.0,12.0,84,0.00,,SKC,0.00,VWS V14.01,2013-12-17 13:38:00,
2013-12-17 08:44:00,26.1,21.6,29.91,ESE,119,6.0,12.0,83,0.00,,SKC,0.00,VWS V14.01,2013-12-17 13:44:00,
2013-12-17 08:49:00,26.0,21.6,29.91,SE,137,8.0,12.0,83,0.00,,SKC,0.00,VWS V14.01,2013-12-17 13:49:00,
2013-12-17 08:54:00,25.8,21.4,29.91,ENE,78,0.0,10.0,83,0.00,,SKC,0.00,VWS V14.01,2013-12-17 13:54:00,
2013-12-17 08:59:00,25.6,20.9,29.91,East,94,5.0,12.0,82,0.00,,SKC,0.00,VWS V14.01,2013-12-17 13:59:00,
2013-12-17 09:00:00,25.8,21.4,29.91,ESE,113,6.0,12.0,83,0.00,,SKC,0.00,VWS V14.01,2013-12-17 14:00:00,
2013-12-17 09:04:00,25.3,20.6,29.91,ESE,121,5.0,12.0,82,0.00,,SKC,0.00,VWS V14.01,2013-12-17 14:04:00,
2013-12-17 09:09:00,25.3,20.6,29.92,East,101,3.0,12.0,82,0.00,,SKC,0.00,VWS V14.01,2013-12-17 14:09:00,
2013-12-17 09:14:00,25.3,20.6,29.92,ESE,109,4.0,12.0,82,0.00,,SKC,0.00,VWS V14.01,2013-12-17 14:14:00,
2013-12-17 09:19:00,25.1,20.1,29.92,ENE,72,5.0,12.0,81,0.00,,SKC,0.00,VWS V14.01,2013-12-17 14:19:00,
2013-12-17 09:24:00,25.0,19.7,29.92,East,101,2.0,12.0,80,0.00,,SKC,0.00,VWS V14.01,2013-12-17 14:24:00,
2013-12-17 09:30:00,24.7,19.1,29.92,ESE,120,8.0,13.0,79,0.00,,SKC,0.00,VWS V14.01,2013-12-17 14:30:00,
2013-12-17 09:34:00,24.7,19.1,29.92,East,94,3.0,13.0,79,0.00,,SKC,0.00,VWS V14.01,2013-12-17 14:34:00,
2013-12-17 09:40:00,24.7,19.1,29.92,ESE,118,1.0,13.0,79,0.00,,SKC,0.00,VWS V14.01,2013-12-17 14:40:00,
2013-12-17 09:45:00,24.7,19.4,29.92,ESE,117,2.0,13.0,80,0.00,,SKC,0.00,VWS V14.01,2013-12-17 14:45:00,
2013-12-17 09:50:00,24.5,19.2,29.92,ESE,107,3.0,13.0,80,0.00,,SKC,0.00,VWS V14.01,2013-12-17 14:50:00,
2013-12-17 09:55:00,24.5,19.2,29.93,ESE,103,6.0,10.0,80,0.00,,SKC,0.00,VWS V14.01,2013-12-17 14:55:00,
2013-12-17 10:00:00,24.2,18.6,29.93,ESE,112,5.0,10.0,79,0.00,,SKC,0.00,VWS V14.01,2013-12-17 15:00:00,
2013-12-17 10:05:00,24.1,18.5,29.93,ESE,108,7.0,12.0,79,0.00,,SKC,0.00,VWS V14.01,2013-12-17 15:05:00,
2013-12-17 10:10:00,23.8,18.0,29.94,ESE,118,5.0,12.0,78,0.00,,SKC,0.00,VWS V14.01,2013-12-17 15:10:00,
2013-12-17 10:15:00,23.8,18.0,29.94,ESE,115,2.0,12.0,78,0.00,,SKC,0.00,VWS V14.01,2013-12-17 15:15:00,
2013-12-17 10:20:00,23.8,17.7,29.94,ESE,112,5.0,12.0,77,0.00,,SKC,0.00,VWS V14.01,2013-12-17 15:20:00,
2013-12-17 10:26:00,23.8,17.7,29.95,ESE,113,6.0,12.0,77,0.00,,SKC,0.00,VWS V14.01,2013-12-17 15:26:00,
2013-12-17 10:31:00,23.6,17.5,29.95,ESE,117,3.0,12.0,77,0.00,,SKC,0.00,VWS V14.01,2013-12-17 15:31:00,
2013-12-17 10:36:00,23.6,17.5,29.95,ESE,115,4.0,12.0,77,0.00,,SKC,0.00,VWS V14.01,2013-12-17 15:36:00,
2013-12-17 10:41:00,23.6,17.8,29.94,ESE,109,4.0,12.0,78,0.00,,SKC,0.00,VWS V14.01,2013-12-17 15:41:00,
2013-12-17 10:46:00,23.5,17.7,29.94,ESE,115,4.0,12.0,78,0.00,,SKC,0.00,VWS V14.01,2013-12-17 15:46:00,
2013-12-17 10:51:00,23.5,18.0,29.94,ESE,111,1.0,12.0,79,0.00,,SKC,0.00,VWS V14.01,2013-12-17 15:51:00,
2013-12-17 10:56:00,23.5,18.0,29.94,ESE,105,1.0,7.0,79,0.00,,SKC,0.00,VWS V14.01,2013-12-17 15:56:00,
2013-12-17 11:00:00,23.5,18.0,29.94,ESE,116,1.0,12.0,79,0.00,,SKC,0.00,VWS V14.01,2013-12-17 16:00:00,
2013-12-17 11:01:00,23.5,18.0,29.94,East,87,0.0,7.0,79,0.00,,SKC,0.00,VWS V14.01,2013-12-17 16:01:00,
2013-12-17 11:06:00,23.5,17.7,29.94,SE,126,0.0,7.0,78,0.00,,SKC,0.00,VWS V14.01,2013-12-17 16:06:00,
2013-12-17 11:11:00,23.5,17.7,29.94,SE,127,5.0,7.0,78,0.00,,SKC,0.00,VWS V14.01,2013-12-17 16:11:00,
2013-12-17 11:17:00,23.2,16.8,29.94,ESE,122,8.0,8.0,76,0.00,,SKC,0.00,VWS V14.01,2013-12-17 16:17:00,
2013-12-17 11:22:00,23.0,16.6,29.94,ESE,122,2.0,8.0,76,0.00,,SKC,0.00,VWS V14.01,2013-12-17 16:22:00,
2013-12-17 11:27:00,23.2,16.8,29.94,SE,130,0.0,8.0,76,0.00,,SKC,0.00,VWS V14.01,2013-12-17 16:27:00,
2013-12-17 11:32:00,23.3,17.2,29.94,SE,130,5.0,8.0,77,0.00,,SKC,0.00,VWS V14.01,2013-12-17 16:32:00,
2013-12-17 11:37:00,23.5,17.4,29.93,ESE,111,2.0,8.0,77,0.00,,SKC,0.00,VWS V14.01,2013-12-17 16:37:00,
2013-12-17 11:42:00,23.8,17.7,29.93,ENE,72,0.0,8.0,77,0.00,,SKC,0.00,VWS V14.01,2013-12-17 16:42:00,
2013-12-17 11:47:00,23.9,17.5,29.93,East,95,1.0,8.0,76,0.00,,SKC,0.00,VWS V14.01,2013-12-17 16:47:00,
2013-12-17 11:52:00,24.1,17.6,29.93,East,95,0.0,8.0,76,0.00,,SKC,0.00,VWS V14.01,2013-12-17 16:52:00,
2013-12-17 11:58:00,24.2,17.4,29.93,ENE,75,2.0,6.0,75,0.00,,SKC,0.00,VWS V14.01,2013-12-17 16:58:00,
2013-12-17 12:00:00,24.1,17.6,29.93,East,95,0.0,8.0,76,0.00,,SKC,0.00,VWS V14.01,2013-12-17 17:00:00,
2013-12-17 12:03:00,24.2,17.4,29.93,East,82,1.0,6.0,75,0.00,,SKC,0.00,VWS V14.01,2013-12-17 17:03:00,
2013-12-17 12:08:00,24.4,17.6,29.92,East,82,0.0,6.0,75,0.00,,SKC,0.00,VWS V14.01,2013-12-17 17:08:00,
2013-12-17 12:13:00,24.4,17.6,29.92,NNW,334,1.0,6.0,75,0.00,,SKC,0.00,VWS V14.01,2013-12-17 17:13:00,
2013-12-17 12:18:00,24.5,17.7,29.92,North,349,0.0,6.0,75,0.00,,SKC,0.00,VWS V14.01,2013-12-17 17:18:00,
2013-12-17 12:23:00,24.8,18.0,29.91,NNE,12,1.0,6.0,75,0.00,,SKC,0.00,VWS V14.01,2013-12-17 17:23:00,
2013-12-17 12:28:00,24.7,17.3,29.91,SE,125,1.0,6.0,73,0.00,,SKC,0.00,VWS V14.01,2013-12-17 17:28:00,
2013-12-17 12:33:00,24.5,17.4,29.91,ESE,112,2.0,6.0,74,0.00,,SKC,0.00,VWS V14.01,2013-12-17 17:33:00,
2013-12-17 12:38:00,24.1,17.0,29.91,NE,40,5.0,6.0,74,0.00,,SKC,0.00,VWS V14.01,2013-12-17 17:38:00,
2013-12-17 12:44:00,24.2,17.4,29.91,NW,325,3.0,6.0,75,0.00,,SKC,0.00,VWS V14.01,2013-12-17 17:44:00,
2013-12-17 12:49:00,24.7,17.9,29.91,SE,128,0.0,6.0,75,0.00,,SKC,0.00,VWS V14.01,2013-12-17 17:49:00,
2013-12-17 12:54:00,25.4,18.3,29.90,ESE,123,4.0,6.0,74,0.00,,SKC,0.00,VWS V14.01,2013-12-17 17:54:00,
2013-12-17 12:59:00,25.1,17.7,29.90,North,355,2.0,7.0,73,0.00,,SKC,0.00,VWS V14.01,2013-12-17 17:59:00,
2013-12-17 13:00:00,25.3,18.5,29.90,ESE,106,3.0,6.0,75,0.00,,SKC,0.00,VWS V14.01,2013-12-17 18:00:00,
2013-12-17 13:04:00,25.6,17.8,29.90,SE,133,6.0,7.0,72,0.00,,SKC,0.00,VWS V14.01,2013-12-17 18:04:00,
2013-12-17 13:09:00,25.1,17.4,29.89,East,91,4.0,7.0,72,0.00,,SKC,0.00,VWS V14.01,2013-12-17 18:09:00,
2013-12-17 13:14:00,25.1,17.7,29.89,NE,46,2.0,7.0,73,0.00,,SKC,0.00,VWS V14.01,2013-12-17 18:14:00,
2013-12-17 13:19:00,25.4,18.0,29.89,East,86,0.0,7.0,73,0.00,,SKC,0.00,VWS V14.01,2013-12-17 18:19:00,
2013-12-17 13:24:00,25.7,17.9,29.88,East,98,0.0,7.0,72,0.00,,SKC,0.00,VWS V14.01,2013-12-17 18:24:00,
2013-12-17 13:29:00,26.0,18.2,29.88,North,360,3.0,7.0,72,0.00,,SKC,0.00,VWS V14.01,2013-12-17 18:29:00,
2013-12-17 13:34:00,26.6,18.5,29.88,WNW,300,0.0,7.0,71,0.00,,SKC,0.00,VWS V14.01,2013-12-17 18:34:00,
2013-12-17 13:40:00,27.0,18.5,29.87,NE,40,0.0,7.0,70,0.00,,SKC,0.00,VWS V14.01,2013-12-17 18:40:00,
2013-12-17 13:45:00,27.5,19.0,29.87,NNW,342,3.0,7.0,70,0.00,,SKC,0.00,VWS V14.01,2013-12-17 18:45:00,
2013-12-17 13:50:00,27.5,18.7,29.87,NNW,329,4.0,7.0,69,0.00,,SKC,0.00,VWS V14.01,2013-12-17 18:50:00,
2013-12-17 13:55:00,27.6,18.4,29.86,NNW,332,0.0,6.0,68,0.00,,SKC,0.00,VWS V14.01,2013-12-17 18:55:00,
2013-12-17 14:00:00,28.1,18.6,29.86,North,10,1.0,6.0,67,0.00,,SKC,0.00,VWS V14.01,2013-12-17 19:00:00,
2013-12-17 14:05:00,28.7,19.1,29.86,North,10,0.0,6.0,67,0.00,,SKC,0.00,VWS V14.01,2013-12-17 19:05:00,
2013-12-17 14:10:00,28.7,19.1,29.85,NE,47,1.0,6.0,67,0.00,,SKC,0.00,VWS V14.01,2013-12-17 19:10:00,
2013-12-17 14:15:00,28.5,18.6,29.85,NW,320,2.0,6.0,66,0.00,,SKC,0.00,VWS V14.01,2013-12-17 19:15:00,
2013-12-17 14:20:00,27.8,18.3,29.85,NNW,338,7.0,8.0,67,0.00,,SKC,0.00,VWS V14.01,2013-12-17 19:20:00,
2013-12-17 14:26:00,27.6,18.8,29.85,NW,318,3.0,8.0,69,0.00,,SKC,0.00,VWS V14.01,2013-12-17 19:26:00,
2013-12-17 14:31:00,27.8,19.0,29.85,NNW,338,7.0,8.0,69,0.00,,SKC,0.00,VWS V14.01,2013-12-17 19:31:00,
2013-12-17 14:36:00,27.8,19.0,29.85,NNW,328,6.0,8.0,69,0.00,,SKC,0.00,VWS V14.01,2013-12-17 19:36:00,
2013-12-17 14:41:00,27.8,19.0,29.85,NNW,338,3.0,8.0,69,0.00,,SKC,0.00,VWS V14.01,2013-12-17 19:41:00,
2013-12-17 14:46:00,27.9,19.1,29.85,NNW,345,6.0,8.0,69,0.00,,SKC,0.00,VWS V14.01,2013-12-17 19:46:00,
2013-12-17 14:51:00,27.6,18.8,29.84,NNW,328,1.0,8.0,69,0.00,,SKC,0.00,VWS V14.01,2013-12-17 19:51:00,
2013-12-17 14:56:00,27.3,18.8,29.84,NNW,331,5.0,9.0,70,0.00,,SKC,0.00,VWS V14.01,2013-12-17 19:56:00,
2013-12-17 15:00:00,27.6,18.8,29.84,NNW,328,4.0,8.0,69,0.00,,SKC,0.00,VWS V14.01,2013-12-17 20:00:00,
2013-12-17 15:01:00,27.6,19.1,29.84,NNW,331,5.0,9.0,70,0.00,,SKC,0.00,VWS V14.01,2013-12-17 20:01:00,
2013-12-17 15:06:00,27.6,19.1,29.84,NNW,334,9.0,9.0,70,0.00,,SKC,0.00,VWS V14.01,2013-12-17 20:06:00,
2013-12-17 15:12:00,27.6,19.1,29.84,NNW,341,0.0,9.0,70,0.00,,SKC,0.00,VWS V14.01,2013-12-17 20:12:00,
2013-12-17 15:17:00,27.5,19.0,29.84,NNW,341,5.0,9.0,70,0.00,,SKC,0.00,VWS V14.01,2013-12-17 20:17:00,
2013-12-17 15:22:00,27.5,19.0,29.84,NNW,341,2.0,9.0,70,0.00,,SKC,0.00,VWS V14.01,2013-12-17 20:22:00,
2013-12-17 15:27:00,27.5,19.0,29.84,NNW,341,3.0,9.0,70,0.00,,SKC,0.00,VWS V14.01,2013-12-17 20:27:00,
2013-12-17 15:32:00,27.6,19.1,29.84,NNW,341,2.0,9.0,70,0.00,,SKC,0.00,VWS V14.01,2013-12-17 20:32:00,
2013-12-17 15:37:00,27.6,19.1,29.84,NNW,340,4.0,9.0,70,0.00,,SKC,0.00,VWS V14.01,2013-12-17 20:37:00,
2013-12-17 15:42:00,27.6,18.8,29.84,NNW,348,5.0,9.0,69,0.00,,SKC,0.00,VWS V14.01,2013-12-17 20:42:00,
2013-12-17 15:47:00,27.5,18.7,29.84,NNW,331,4.0,9.0,69,0.00,,SKC,0.00,VWS V14.01,2013-12-17 20:47:00,
2013-12-17 15:52:00,27.5,18.7,29.84,NNW,327,3.0,3.0,69,0.00,,SKC,0.00,VWS V14.01,2013-12-17 20:52:00,
2013-12-17 15:57:00,27.5,19.0,29.84,NNW,327,0.0,4.0,70,0.00,,SKC,0.00,VWS V14.01,2013-12-17 20:57:00,
2013-12-17 16:00:00,27.5,18.7,29.84,NNW,327,2.0,9.0,69,0.00,,SKC,0.00,VWS V14.01,2013-12-17 21:00:00,
2013-12-17 16:02:00,27.6,18.8,29.84,NNW,327,1.0,4.0,69,0.00,,SKC,0.00,VWS V14.01,2013-12-17 21:02:00,
2013-12-17 16:08:00,27.6,19.1,29.85,NNW,327,1.0,4.0,70,0.00,,SKC,0.00,VWS V14.01,2013-12-17 21:08:00,
2013-12-17 16:13:00,27.5,19.0,29.85,NNW,327,0.0,4.0,70,0.00,,SKC,0.00,VWS V14.01,2013-12-17 21:13:00,
2013-12-17 16:18:00,27.5,19.0,29.85,NNW,327,2.0,5.0,70,0.00,,SKC,0.00,VWS V14.01,2013-12-17 21:18:00,
2013-12-17 16:23:00,27.3,18.8,29.85,NNW,327,1.0,5.0,70,0.00,,SKC,0.00,VWS V14.01,2013-12-17 21:23:00,
2013-12-17 16:28:00,27.2,18.7,29.85,NNW,328,1.0,5.0,70,0.00,,SKC,0.00,VWS V14.01,2013-12-17 21:28:00,
2013-12-17 16:34:00,27.0,18.5,29.85,NNE,31,0.0,5.0,70,0.00,,SKC,0.00,VWS V14.01,2013-12-17 21:34:00,
2013-12-17 16:39:00,27.0,18.9,29.87,NW,307,3.0,5.0,71,0.00,,SKC,0.00,VWS V14.01,2013-12-17 21:39:00,
2013-12-17 16:44:00,26.9,18.8,29.87,ENE,64,1.0,7.0,71,0.00,,SKC,0.00,VWS V14.01,2013-12-17 21:44:00,
2013-12-17 16:49:00,26.7,18.6,29.87,NW,321,5.0,7.0,71,0.00,,SKC,0.00,VWS V14.01,2013-12-17 21:49:00,
2013-12-17 16:54:00,26.4,18.6,29.86,NW,321,5.0,5.0,72,0.00,,SKC,0.00,VWS V14.01,2013-12-17 21:54:00,
2013-12-17 16:59:00,26.3,18.5,29.86,NW,321,1.0,7.0,72,0.00,,SKC,0.00,VWS V14.01,2013-12-17 21:59:00,
2013-12-17 17:00:00,26.6,18.8,29.86,NW,321,2.0,7.0,72,0.00,,SKC,0.00,VWS V14.01,2013-12-17 22:00:00,
2013-12-17 17:04:00,26.1,18.6,29.86,NE,53,0.0,7.0,73,0.00,,SKC,0.00,VWS V14.01,2013-12-17 22:04:00,
2013-12-17 17:09:00,26.1,18.6,29.87,North,5,0.0,7.0,73,0.00,,SKC,0.00,VWS V14.01,2013-12-17 22:09:00,
2013-12-17 17:14:00,26.1,18.6,29.87,NE,50,1.0,7.0,73,0.00,,SKC,0.00,VWS V14.01,2013-12-17 22:14:00,
2013-12-17 17:16:00,26.0,18.5,29.87,NE,50,1.0,7.0,73,0.00,,SKC,0.00,VWS V14.01,2013-12-17 22:16:00,
2013-12-17 17:21:00,26.0,18.5,29.87,NE,55,2.0,7.0,73,0.00,,SKC,0.00,VWS V14.01,2013-12-17 22:21:00,
2013-12-17 17:26:00,25.8,18.7,29.87,NE,52,3.0,7.0,74,0.00,,SKC,0.00,VWS V14.01,2013-12-17 22:26:00,
2013-12-17 17:31:00,25.8,18.7,29.87,North,5,4.0,7.0,74,0.00,,SKC,0.00,VWS V14.01,2013-12-17 22:31:00,
2013-12-17 17:36:00,25.8,18.7,29.88,North,5,0.0,7.0,74,0.00,,SKC,0.00,VWS V14.01,2013-12-17 22:36:00,
2013-12-17 17:41:00,25.8,18.7,29.88,North,5,0.0,7.0,74,0.00,,SKC,0.00,VWS V14.01,2013-12-17 22:41:00,
2013-12-17 17:46:00,25.8,18.7,29.88,North,5,0.0,7.0,74,0.00,,SKC,0.00,VWS V14.01,2013-12-17 22:46:00,
2013-12-17 17:52:00,25.8,18.7,29.87,North,5,2.0,7.0,74,0.00,,SKC,0.00,VWS V14.01,2013-12-17 22:52:00,
2013-12-17 17:57:00,25.8,18.7,29.87,North,5,2.0,3.0,74,0.00,,SKC,0.00,VWS V14.01,2013-12-17 22:57:00,
2013-12-17 18:00:00,25.8,18.7,29.87,North,5,2.0,7.0,74,0.00,,SKC,0.00,VWS V14.01,2013-12-17 23:00:00,
2013-12-17 18:02:00,25.8,19.0,29.87,North,5,2.0,5.0,75,0.00,,SKC,0.00,VWS V14.01,2013-12-17 23:02:00,
2013-12-17 18:07:00,25.8,19.0,29.87,North,5,2.0,5.0,75,0.00,,SKC,0.00,VWS V14.01,2013-12-17 23:07:00,
2013-12-17 18:12:00,25.8,19.0,29.87,North,5,4.0,5.0,75,0.00,,SKC,0.00,VWS V14.01,2013-12-17 23:12:00,
2013-12-17 18:17:00,25.8,19.0,29.87,North,5,4.0,5.0,75,0.00,,SKC,0.00,VWS V14.01,2013-12-17 23:17:00,
2013-12-17 18:22:00,25.8,19.0,29.87,NNW,341,5.0,5.0,75,0.00,,SKC,0.00,VWS V14.01,2013-12-17 23:22:00,
2013-12-17 18:27:00,26.0,19.2,29.87,NNW,341,2.0,5.0,75,0.00,,SKC,0.00,VWS V14.01,2013-12-17 23:27:00,
2013-12-17 18:32:00,26.0,19.2,29.87,NNW,341,1.0,5.0,75,0.00,,SKC,0.00,VWS V14.01,2013-12-17 23:32:00,
2013-12-17 18:38:00,26.0,19.5,29.88,NNW,341,5.0,5.0,76,0.00,,SKC,0.00,VWS V14.01,2013-12-17 23:38:00,
2013-12-17 18:43:00,26.1,19.6,29.88,NNW,341,0.0,7.0,76,0.00,,SKC,0.00,VWS V14.01,2013-12-17 23:43:00,
2013-12-17 18:48:00,26.1,19.9,29.88,NNW,330,3.0,7.0,77,0.00,,SKC,0.00,VWS V14.01,2013-12-17 23:48:00,
2013-12-17 18:53:00,26.1,19.9,29.88,NNW,329,1.0,3.0,77,0.00,,SKC,0.00,VWS V14.01,2013-12-17 23:53:00,
2013-12-17 18:58:00,26.1,20.2,29.88,NNW,329,4.0,5.0,78,0.00,,SKC,0.00,VWS V14.01,2013-12-17 23:58:00,
2013-12-17 19:00:00,26.1,19.9,29.88,NNW,329,2.0,7.0,77,0.00,,SKC,0.00,VWS V14.01,2013-12-18 00:00:00,
2013-12-17 19:03:00,26.0,20.4,29.88,NNW,329,2.0,5.0,79,0.00,,SKC,0.00,VWS V14.01,2013-12-18 00:03:00,
2013-12-17 19:08:00,25.8,20.5,29.88,NNW,337,4.0,7.0,80,0.00,,SKC,0.00,VWS V14.01,2013-12-18 00:08:00,
2013-12-17 19:13:00,25.8,21.1,29.88,NNW,337,4.0,7.0,82,0.00,,SKC,0.00,VWS V14.01,2013-12-18 00:13:00,
2013-12-17 19:18:00,25.7,21.0,29.88,NNW,337,2.0,7.0,82,0.00,,SKC,0.00,VWS V14.01,2013-12-18 00:18:00,
2013-12-17 19:23:00,25.7,21.3,29.88,NNW,337,2.0,7.0,83,0.00,,SKC,0.00,VWS V14.01,2013-12-18 00:23:00,
2013-12-17 19:29:00,25.7,21.5,29.88,NNW,337,0.0,7.0,84,0.00,,SKC,0.00,VWS V14.01,2013-12-18 00:29:00,
2013-12-17 19:34:00,25.6,21.7,29.88,NNW,337,0.0,7.0,85,0.00,,SKC,0.00,VWS V14.01,2013-12-18 00:34:00,
2013-12-17 19:39:00,25.6,21.7,29.89,NNW,337,0.0,7.0,85,0.00,,SKC,0.00,VWS V14.01,2013-12-18 00:39:00,
2013-12-17 19:44:00,25.4,21.5,29.89,NNW,337,0.0,7.0,85,0.00,,SKC,0.00,VWS V14.01,2013-12-18 00:44:00,
2013-12-17 19:49:00,25.4,21.8,29.89,NNW,337,0.0,7.0,86,0.00,,SKC,0.00,VWS V14.01,2013-12-18 00:49:00,
2013-12-17 19:54:00,25.4,21.8,29.90,NNW,337,0.0,0.0,86,0.00,,SKC,0.00,VWS V14.01,2013-12-18 00:54:00,
2013-12-17 19:59:00,25.4,21.8,29.90,NNW,337,0.0,3.0,86,0.00,,SKC,0.00,VWS V14.01,2013-12-18 00:59:00,
2013-12-17 20:00:00,25.4,21.8,29.90,NNW,337,0.0,7.0,86,0.00,,SKC,0.00,VWS V14.01,2013-12-18 01:00:00,
2013-12-17 20:04:00,25.4,21.8,29.90,NNW,337,0.0,3.0,86,0.00,,SKC,0.00,VWS V14.01,2013-12-18 01:04:00,
2013-12-17 20:09:00,25.4,21.8,29.90,NNW,337,1.0,5.0,86,0.00,,SKC,0.00,VWS V14.01,2013-12-18 01:09:00,
2013-12-17 20:15:00,25.4,21.8,29.90,NNW,337,2.0,5.0,86,0.00,,SKC,0.00,VWS V14.01,2013-12-18 01:15:00,
2013-12-17 20:20:00,25.4,21.8,29.90,NNW,338,0.0,5.0,86,0.00,,SKC,0.00,VWS V14.01,2013-12-18 01:20:00,
2013-12-17 20:25:00,25.4,22.1,29.91,NNW,338,1.0,5.0,87,0.00,,SKC,0.00,VWS V14.01,2013-12-18 01:25:00,
2013-12-17 20:30:00,25.4,22.1,29.91,NNE,24,0.0,5.0,87,0.00,,SKC,0.00,VWS V14.01,2013-12-18 01:30:00,
2013-12-17 20:35:00,25.4,22.1,29.91,NNE,27,0.0,5.0,87,0.00,,SKC,0.00,VWS V14.01,2013-12-18 01:35:00,
2013-12-17 20:40:00,25.3,22.0,29.91,NE,51,1.0,5.0,87,0.00,,SKC,0.00,VWS V14.01,2013-12-18 01:40:00,
2013-12-17 20:45:00,25.4,22.1,29.91,NE,46,1.0,5.0,87,0.00,,SKC,0.00,VWS V14.01,2013-12-18 01:45:00,
2013-12-17 20:50:00,25.4,22.1,29.91,ENE,65,5.0,5.0,87,0.00,,SKC,0.00,VWS V14.01,2013-12-18 01:50:00,
2013-12-17 20:55:00,25.3,22.0,29.91,NE,40,2.0,7.0,87,0.00,,SKC,0.00,VWS V14.01,2013-12-18 01:55:00,
2013-12-17 21:00:00,25.3,22.0,29.91,NE,44,1.0,7.0,87,0.00,,SKC,0.00,VWS V14.01,2013-12-18 02:00:00,
2013-12-17 21:06:00,25.3,22.0,29.91,NE,55,2.0,7.0,87,0.00,,SKC,0.00,VWS V14.01,2013-12-18 02:06:00,
2013-12-17 21:11:00,25.3,21.7,29.92,ENE,77,2.0,7.0,86,0.00,,SKC,0.00,VWS V14.01,2013-12-18 02:11:00,
2013-12-17 21:16:00,25.3,21.7,29.92,NNE,28,4.0,7.0,86,0.00,,SKC,0.00,VWS V14.01,2013-12-18 02:16:00,
2013-12-17 21:21:00,25.3,21.7,29.92,ENE,59,0.0,7.0,86,0.00,,SKC,0.00,VWS V14.01,2013-12-18 02:21:00,
2013-12-17 21:26:00,25.3,21.7,29.92,NE,56,1.0,7.0,86,0.00,,SKC,0.00,VWS V14.01,2013-12-18 02:26:00,
2013-12-17 21:31:00,25.3,21.7,29.92,ESE,109,1.0,8.0,86,0.00,,SKC,0.00,VWS V14.01,2013-12-18 02:31:00,
2013-12-17 21:36:00,25.3,21.4,29.92,NE,51,2.0,9.0,85,0.00,,SKC,0.00,VWS V14.01,2013-12-18 02:36:00,
2013-12-17 21:41:00,25.3,21.4,29.92,NNE,29,1.0,9.0,85,0.00,,SKC,0.00,VWS V14.01,2013-12-18 02:41:00,
2013-12-17 21:46:00,25.3,21.1,29.92,NE,53,5.0,9.0,84,0.00,,SKC,0.00,VWS V14.01,2013-12-18 02:46:00,
2013-12-17 21:51:00,25.3,21.1,29.92,East,83,1.0,9.0,84,0.00,,SKC,0.00,VWS V14.01,2013-12-18 02:51:00,
2013-12-17 21:57:00,25.3,21.1,29.92,ENE,61,0.0,5.0,84,0.00,,SKC,0.00,VWS V14.01,2013-12-18 02:57:00,
2013-12-17 22:00:00,25.3,21.1,29.92,ESE,103,0.0,9.0,84,0.00,,SKC,0.00,VWS V14.01,2013-12-18 03:00:00,
2013-12-17 22:02:00,25.3,21.1,29.92,ENE,61,2.0,9.0,84,0.00,,SKC,0.00,VWS V14.01,2013-12-18 03:02:00,
2013-12-17 22:07:00,25.3,20.9,29.94,ENE,72,0.0,9.0,83,0.00,,SKC,0.00,VWS V14.01,2013-12-18 03:07:00,
2013-12-17 22:12:00,25.3,20.9,29.94,NE,42,1.0,9.0,83,0.00,,SKC,0.00,VWS V14.01,2013-12-18 03:12:00,
2013-12-17 22:17:00,25.3,20.9,29.94,NE,52,4.0,9.0,83,0.00,,SKC,0.00,VWS V14.01,2013-12-18 03:17:00,
2013-12-17 22:22:00,25.3,20.9,29.94,NE,50,2.0,9.0,83,0.00,,SKC,0.00,VWS V14.01,2013-12-18 03:22:00,
2013-12-17 22:27:00,25.3,20.9,29.94,ENE,61,0.0,9.0,83,0.00,,SKC,0.00,VWS V14.01,2013-12-18 03:27:00,
2013-12-17 22:32:00,25.3,20.9,29.94,ENE,65,1.0,9.0,83,0.00,,SKC,0.00,VWS V14.01,2013-12-18 03:32:00,
2013-12-17 22:37:00,25.3,20.9,29.94,ESE,103,0.0,9.0,83,0.00,,SKC,0.00,VWS V14.01,2013-12-18 03:37:00,
2013-12-17 22:42:00,25.3,20.9,29.94,East,87,2.0,9.0,83,0.00,,SKC,0.00,VWS V14.01,2013-12-18 03:42:00,
2013-12-17 22:48:00,25.1,20.7,29.94,ENE,74,0.0,9.0,83,0.00,,SKC,0.00,VWS V14.01,2013-12-18 03:48:00,
2013-12-17 22:53:00,25.1,20.4,29.95,East,95,2.0,3.0,82,0.00,,SKC,0.00,VWS V14.01,2013-12-18 03:53:00,
2013-12-17 22:58:00,25.1,20.7,29.95,ENE,67,4.0,5.0,83,0.00,,SKC,0.00,VWS V14.01,2013-12-18 03:58:00,
2013-12-17 23:00:00,25.1,20.4,29.95,ESE,111,0.0,9.0,82,0.00,,SKC,0.00,VWS V14.01,2013-12-18 04:00:00,
2013-12-17 23:03:00,25.1,20.7,29.95,ENE,65,1.0,6.0,83,0.00,,SKC,0.00,VWS V14.01,2013-12-18 04:03:00,
2013-12-17 23:08:00,25.1,20.7,29.95,NE,34,2.0,7.0,83,0.00,,SKC,0.00,VWS V14.01,2013-12-18 04:08:00,
2013-12-17 23:13:00,25.1,20.4,29.95,ENE,69,0.0,8.0,82,0.00,,SKC,0.00,VWS V14.01,2013-12-18 04:13:00,
2013-12-17 23:18:00,25.1,20.4,29.95,NNE,24,2.0,8.0,82,0.00,,SKC,0.00,VWS V14.01,2013-12-18 04:18:00,
2013-12-17 23:23:00,25.1,20.4,29.96,NNE,21,0.0,8.0,82,0.00,,SKC,0.00,VWS V14.01,2013-12-18 04:23:00,
2013-12-17 23:28:00,25.1,20.4,29.96,East,80,2.0,8.0,82,0.00,,SKC,0.00,VWS V14.01,2013-12-18 04:28:00,
2013-12-17 23:33:00,25.1,20.4,29.96,ENE,57,2.0,8.0,82,0.00,,SKC,0.00,VWS V14.01,2013-12-18 04:33:00,
2013-12-17 23:39:00,25.1,20.4,29.96,East,89,0.0,8.0,82,0.00,,SKC,0.00,VWS V14.01,2013-12-18 04:39:00,
2013-12-17 23:44:00,25.1,20.4,29.96,NE,55,1.0,8.0,82,0.00,,SKC,0.00,VWS V14.01,2013-12-18 04:44:00,
2013-12-17 23:49:00,25.1,20.4,29.96,NE,51,2.0,8.0,82,0.00,,SKC,0.00,VWS V14.01,2013-12-18 04:49:00,
2013-12-17 23:54:00,25.1,20.4,29.96,NE,53,1.0,7.0,82,0.00,,SKC,0.00,VWS V14.01,2013-12-18 04:54:00,
2013-12-17 23:59:00,25.1,20.4,29.96,NE,53,0.0,7.0,82,0.00,,SKC,0.00,VWS V14.01,2013-12-18 04:59:00,